{"data":{"norad_id":48022,"intl_designator":"2021-024AX","name":"STARLINK-2298","alt_names":[],"object_type":"PAYLOAD","status":"ACTIVE","operator":null,"country":"US","launch_date":"2021-03-24","launch_site_code":"AFETR","launch_vehicle":null,"mission":null,"orbit_class":"UNKNOWN","rcs_meters":null,"size_class":null,"mass_kg":null,"dimensions":null,"purposes":["comms"],"wikipedia_slug":null,"has_3d_model":false,"image_url":null,"decayed_at":null,"tle_current":{"epoch":"2026-09-20T04:44:21.073632Z","epoch_age_seconds":55302,"freshness":"FRESH","line1":"1 48022U 21024AX  26263.19746613  .00133931  00000+0  60301-3 0  9993","line2":"2 48022  53.1132 110.5187 0003489 176.8560 183.2485 15.83182931304923","mean_motion":15.83182931,"eccentricity":0.0003489,"inclination_deg":53.1132,"raan_deg":110.5187,"arg_perigee_deg":176.856,"mean_anomaly_deg":183.2485,"bstar":0.00060301,"rev_number":30492,"period_min":90.956008418461,"perigee_km":319.10856944932,"apogee_km":323.78353850439,"semimajor_km":6699.5830539769,"source":"CELESTRAK","updated_at":"2026-09-20T09:00:38.760383Z"}}}